Hourly Data Report for September 06, 2017

All times are specified in Local Standard Time (LST). Add 1 hour to adjust for Daylight Saving Time where and when it is observed.

POND INLET A
NUNAVUT

72°41'22.000" N
77°58'08.000" W
61.60 m
2403206
71095
YIO

Download Data

Hourly Data (September 2017)
Hourly Data Report for September 6, 2017
Temp Definition
°C
Dew Point Temp Definition
°C
Rel Hum Definition
%
Wind Dir Definition
10's deg

Wind Spd Definition
km/h
Visibility Definition
km
Stn Press Definition
kPa
Hmdx Definition


Wind Chill Definition


Weather Definition


TIME
00:00 Legend Double Dagger -0.9 -4.4 77 19 17 16.1 100.45   -6 LegendNANA
01:00 Legend Double Dagger -0.7 -5.5 70 24 22 16.1 100.45   -6 LegendNANA
02:00 Legend Double Dagger -0.8 -5.7 69 24 21 16.1 100.46   -6 LegendNANA
03:00 Legend Double Dagger -1.0 -5.9 70 25 21 16.1 100.46   -7 LegendNANA
04:00 Legend Double Dagger -1.1 -5.9 70 26 17 16.1 100.48   -6 LegendNANA
05:00 Legend Double Dagger -1.2 -6.0 70 25 21 16.1 100.48   -7 LegendNANA
06:00 Legend Double Dagger -1.2 -5.6 72 22 11 16.1 100.49   -5 LegendNANA
07:00 Legend Double Dagger -1.1 -5.8 70 24 18 16.1 100.49   -6 LegendNANA
08:00 Legend Double Dagger -1.0 -5.6 71 22 17 16.1 100.50   -6 LegendNANA
09:00 Legend Double Dagger -1.0 -6.0 69 23 21 16.1 100.48   -7 LegendNANA
10:00 Legend Double Dagger -0.8 -5.6 70 24 22 16.1 100.46   -7 LegendNANA
11:00 Legend Double Dagger -1.0 -5.2 73 25 30 16.1 100.47   -8 LegendNANA
12:00 Legend Double Dagger -0.8 -5.6 70 26 21 16.1 100.47   -6 LegendNANA
13:00 Legend Double Dagger -0.5 -5.7 68 27 21 16.1 100.49   -6 LegendNANA
14:00 Legend Double Dagger -0.6 -6.0 67 26 18 16.1 100.51   -6 LegendNANA
15:00 Legend Double Dagger -0.7 -6.3 66 25 22 16.1 100.53   -6 LegendNANA
16:00 Legend Double Dagger -0.7 -5.9 68 26 21 16.1 100.55   -6 LegendNANA
17:00 Legend Double Dagger -0.9 -5.9 69 25 18 16.1 100.56   -6 LegendNANA
18:00 Legend Double Dagger -0.9 -5.7 70 24 18 16.1 100.57   -6 LegendNANA
19:00 Legend Double Dagger -1.0 -5.2 73 22 15 16.1 100.57   -6 LegendNANA
20:00 Legend Double Dagger -0.9 -5.2 73 22 15 16.1 100.58   -6 LegendNANA
21:00 Legend Double Dagger -0.6 -5.1 72 25 18 16.1 100.57   -6 LegendNANA
22:00 Legend Double Dagger -0.3 -4.9 71 26 21 16.1 100.57   -6 LegendNANA
23:00 Legend Double Dagger -0.1 -5.0 70 25 15 16.1 100.58   -5 LegendNANA

Notes on Data Quality.

Legend

  • E = Estimated
  • M = Missing
  • NA = Not Available
  • ‡ = Partner data that is not subject to review by the National Climate Archives
Date modified: